This is the latest recevied weather packets stored in our database for station/object S51UL-6. If no packets are shown the sender has not sent any weather packets the latest 10 day(s).
| Time | Temp. | Humidity | Pressure | Rain* | Wind** | Luminosity | Snow |
|---|---|---|---|---|---|---|---|
| 1788408669 | 15° C | 88% | 1021.5 hPa | 1.52 mm | - | - | - |
| 1788408369 | 15.56° C | 88% | 1021.3 hPa | 1.52 mm | - | - | - |
| 1788408069 | 15.56° C | 88% | 1021.4 hPa | 1.52 mm | - | - | - |
| 1788406869 | 15.56° C | 87% | 1021.2 hPa | 0 mm | - | - | - |
| 1788406269 | 15.56° C | 87% | 1021.1 hPa | 0 mm | - | - | - |
| 1788405970 | 16.11° C | 87% | 1021.1 hPa | 0 mm | - | - | - |
| 1788405669 | 16.11° C | 87% | 1021.1 hPa | 0 mm | - | - | - |
| 1788405370 | 16.11° C | 86% | 1021.1 hPa | 0 mm | - | - | - |
| 1788405070 | 16.11° C | 86% | 1021 hPa | 0 mm | - | - | - |
| 1788404773 | 16.11° C | 86% | 1021.1 hPa | 0 mm | - | - | - |
| 1788404470 | 16.11° C | 86% | 1021.1 hPa | 0 mm | - | - | - |
| 1788403870 | 16.67° C | 86% | 1021.4 hPa | 0 mm | - | - | - |
| 1788403570 | 16.67° C | 85% | 1021.3 hPa | 0 mm | - | - | - |
| 1788403270 | 16.67° C | 85% | 1021.4 hPa | 0 mm | - | - | - |
| 1788402670 | 17.22° C | 86% | 1021.4 hPa | 0 mm | - | - | - |
| 1788402070 | 17.22° C | 86% | 1021.4 hPa | 0 mm | - | - | - |
| 1788401770 | 17.22° C | 86% | 1021.4 hPa | 0 mm | - | - | - |
| 1788400870 | 17.22° C | 86% | 1021.2 hPa | 0.51 mm | - | - | - |
| 1788400570 | 17.22° C | 86% | 1021.1 hPa | 0.51 mm | - | - | - |
| 1788400271 | 17.22° C | 86% | 1021 hPa | 1.52 mm | - | - | - |
| 1788399970 | 17.22° C | 86% | 1021 hPa | 1.52 mm | - | - | - |
| 1788399687 | 17.22° C | 86% | 1021.1 hPa | 1.52 mm | - | - | - |
| 1788399371 | 17.22° C | 86% | 1021 hPa | 2.03 mm | - | - | - |
| 1788399071 | 17.22° C | 86% | 1021 hPa | 2.03 mm | - | - | - |
| 1788398771 | 17.22° C | 87% | 1021.2 hPa | 2.54 mm | - | - | - |
* Rain latest hour (hover to see other rain measurements)
** Current wind speed in m/s (hover to see current wind gust speed)